Weather History for KORB - December, 2013

Change the Weather History Date:

Sunday, December 1, 2013

  Actual Average Record
Temperature  
Mean Temperature 20 °F -  
Max Temperature 24 °F 25 °F 44 °F (1999)
Min Temperature 17 °F 12 °F -14 °F (2014)
Degree Days  
Heating Degree Days 44    
Moisture  
Dew Point 19 °F    
Average Humidity 87    
Maximum Humidity 93    
Minimum Humidity 80    
Precipitation  
Precipitation 0.00 in - - ()
Sea Level Pressure  
Sea Level Pressure 30.03 in    
Wind  
Wind Speed 1 mph (WNW)    
Max Wind Speed 5 mph    
Max Gust Speed -    
Visibility 8 miles    
Events Snow    
Averages and records for this station are not official NWS values.
T = Trace of Precipitation, MM = Missing Value Source: NWS Daily Summary

Daily Weather History Graph

Daily Weather History Graph

Search for Another Location

Airport or City:

Trip Planner

Search our weather history database for the weather conditions in past years. The results will help you decide how hot, cold, wet, or windy it might be!

Date:

Astronomy

Dec. 01, 2013 Rise Set
Actual Time 7:40 AM CST 4:20 PM CST
Civil Twilight 7:05 AM CST 4:55 PM CST
Nautical Twilight 6:26 AM CST 5:34 PM CST
Astronomical Twilight 5:48 AM CST 6:12 PM CST
Moon 5:53 AM CST (12/1) 3:35 PM CST (12/1)
Length of Visible Light 9h 50m
Length of Day
8h 39m
Waning Crescent, 2% of the Moon is Illuminated
Dec 1
Waning Crescent
Dec 2
New
Dec 9
First Quarter
Dec 17
Full
Dec 25
Last Quarter

Hourly Weather History & Observations

Time (CST) Temp. Windchill Dew Point Humidity Pressure Visibility Wind Dir Wind Speed Gust Speed Precip Events Conditions
12:14 AM 24.8 °F - 19.4 °F 80% 30.12 in 10.0 mi Calm Calm - N/A   Overcast
12:33 AM 24.8 °F - 19.4 °F 80% 30.12 in 10.0 mi Calm Calm - N/A   Overcast
12:53 AM 24.8 °F - 19.4 °F 80% 30.12 in 10.0 mi Calm Calm - N/A   Overcast
1:13 AM 24.8 °F - 19.4 °F 80% 30.11 in 10.0 mi Calm Calm - N/A   Overcast
1:33 AM 24.8 °F - 19.4 °F 80% 30.11 in 10.0 mi Calm Calm - N/A   Overcast
1:53 AM 24.8 °F - 19.4 °F 80% 30.11 in 10.0 mi Calm Calm - N/A   Overcast
2:13 AM 24.8 °F - 19.4 °F 80% 30.12 in 10.0 mi Calm Calm - N/A   Overcast
2:33 AM 24.8 °F - 19.4 °F 80% 30.12 in 10.0 mi Calm Calm - N/A   Overcast
2:53 AM 23.0 °F - 19.4 °F 86% 30.12 in 10.0 mi Calm Calm - N/A   Overcast
3:13 AM 24.8 °F - 19.4 °F 80% 30.12 in 10.0 mi Calm Calm - N/A   Overcast
3:33 AM 24.8 °F - 21.2 °F 86% 30.10 in 10.0 mi Calm Calm - N/A   Overcast
3:53 AM 23.0 °F - 21.2 °F 93% 30.11 in 10.0 mi Calm Calm - N/A   Overcast
4:13 AM 23.0 °F - 19.4 °F 86% 30.11 in 10.0 mi Calm Calm - N/A   Overcast
4:33 AM 23.0 °F - 21.2 °F 93% 30.11 in 10.0 mi Calm Calm - N/A   Overcast
4:53 AM 23.0 °F - 19.4 °F 86% 30.11 in 10.0 mi Calm Calm - N/A   Overcast
5:13 AM 23.0 °F - 19.4 °F 86% 30.10 in 10.0 mi Calm Calm - N/A   Overcast
5:33 AM 23.0 °F - 19.4 °F 86% 30.10 in 10.0 mi Calm Calm - N/A   Overcast
5:53 AM 23.0 °F - 19.4 °F 86% 30.11 in 10.0 mi Calm Calm - N/A   Overcast
6:13 AM 23.0 °F - 19.4 °F 86% 30.11 in 10.0 mi Calm Calm - N/A   Overcast
6:33 AM 23.0 °F - 19.4 °F 86% 30.10 in 10.0 mi Calm Calm - N/A   Overcast
6:53 AM 23.0 °F - 19.4 °F 86% 30.10 in 10.0 mi Calm Calm - N/A   Overcast
7:13 AM 23.0 °F - 19.4 °F 86% 30.09 in 10.0 mi Calm Calm - N/A   Overcast
7:33 AM 23.0 °F - 19.4 °F 86% 30.10 in 10.0 mi Calm Calm - N/A   Overcast
7:53 AM 23.0 °F - 19.4 °F 86% 30.09 in 7.0 mi Calm Calm - N/A   Overcast
8:14 AM 23.0 °F - 19.4 °F 86% 30.09 in 5.0 mi Calm Calm - N/A   Overcast
8:33 AM 23.0 °F - 21.2 °F 93% 30.09 in 2.5 mi Calm Calm - N/A   Overcast
8:53 AM 23.0 °F 18.4 °F 21.2 °F 93% 30.09 in 2.0 mi WNW 3.5 mph - N/A   Overcast
9:13 AM 24.8 °F 19.1 °F 21.2 °F 86% 30.09 in 2.0 mi West 4.6 mph - N/A   Overcast
9:33 AM 23.0 °F 18.4 °F 21.2 °F 93% 30.09 in 2.5 mi WNW 3.5 mph - N/A Snow Light Snow
9:53 AM 23.0 °F - 21.2 °F 93% 30.09 in 2.0 mi Calm Calm - N/A   Overcast
10:13 AM 23.0 °F 18.4 °F 21.2 °F 93% 30.09 in 2.0 mi WNW 3.5 mph - N/A Snow Light Snow
10:33 AM 23.0 °F 18.4 °F 21.2 °F 93% 30.09 in 2.0 mi WNW 3.5 mph - N/A Snow Light Snow
10:53 AM 23.0 °F 18.4 °F 19.4 °F 86% 30.08 in 2.5 mi WNW 3.5 mph - N/A Snow Light Snow
11:13 AM 23.0 °F 18.4 °F 19.4 °F 86% 30.07 in 2.5 mi WNW 3.5 mph - N/A Snow Snow
11:33 AM 23.0 °F - 19.4 °F 86% 30.07 in 2.0 mi Calm Calm - N/A Snow Light Snow
11:53 AM 23.0 °F 18.4 °F 19.4 °F 86% 30.06 in 2.5 mi WNW 3.5 mph - N/A Snow Light Snow
12:13 PM 23.0 °F 18.4 °F 19.4 °F 86% 30.05 in 2.0 mi WNW 3.5 mph - N/A Snow Light Snow
12:33 PM 23.0 °F - 19.4 °F 86% 30.04 in 2.5 mi Calm Calm - N/A Snow Snow
12:53 PM 23.0 °F - 19.4 °F 86% 30.03 in 2.5 mi Calm Calm - N/A Snow Light Snow
1:13 PM 23.0 °F 18.4 °F 19.4 °F 86% 30.03 in 3.0 mi NW 3.5 mph - N/A   Overcast
1:33 PM 23.0 °F 18.4 °F 19.4 °F 86% 30.02 in 4.0 mi WNW 3.5 mph - N/A   Overcast
1:53 PM 23.0 °F 18.4 °F 19.4 °F 86% 30.01 in 3.0 mi NW 3.5 mph - N/A Snow Light Snow
2:13 PM 21.2 °F 16.4 °F 19.4 °F 93% 30.00 in 2.5 mi WNW 3.5 mph - N/A Snow Light Snow
2:33 PM 21.2 °F 14.9 °F 19.4 °F 93% 30.00 in 4.0 mi WNW 4.6 mph - N/A Snow Light Snow
2:53 PM 21.2 °F - 17.6 °F 86% 29.99 in 5.0 mi Calm Calm - N/A Snow Light Snow
3:13 PM 21.2 °F 16.4 °F 17.6 °F 86% 29.99 in 4.0 mi NW 3.5 mph - N/A Snow Light Snow
3:33 PM 21.2 °F - 17.6 °F 86% 29.99 in 7.0 mi Calm Calm - N/A Snow Light Snow
3:53 PM 21.2 °F - 17.6 °F 86% 29.98 in 5.0 mi Calm Calm - N/A Snow Light Snow
4:13 PM 21.2 °F - 17.6 °F 86% 29.98 in 7.0 mi Calm Calm - N/A Snow Light Snow
4:33 PM 21.2 °F - 17.6 °F 86% 29.98 in 10.0 mi Calm Calm - N/A Snow Light Snow
4:53 PM 21.2 °F - 17.6 °F 86% 29.98 in 10.0 mi Calm Calm - N/A   Overcast
5:13 PM 21.2 °F - 17.6 °F 86% 29.98 in 7.0 mi Calm Calm - N/A Snow Light Snow
5:33 PM 21.2 °F - 17.6 °F 86% 29.98 in 10.0 mi Calm Calm - N/A   Overcast
5:53 PM 19.4 °F - 17.6 °F 93% 29.98 in 10.0 mi Calm Calm - N/A   Overcast
6:13 PM 19.4 °F - 17.6 °F 93% 29.97 in 10.0 mi Calm Calm - N/A   Overcast
6:33 PM 19.4 °F - 17.6 °F 93% 29.96 in 10.0 mi Calm Calm - N/A   Overcast
6:53 PM 19.4 °F - 17.6 °F 93% 29.96 in 10.0 mi Calm Calm - N/A   Overcast
7:13 PM 19.4 °F - 17.6 °F 93% 29.95 in 10.0 mi Calm Calm - N/A Snow Light Snow
7:33 PM 19.4 °F - 17.6 °F 93% 29.95 in 10.0 mi Calm Calm - N/A   Overcast
7:53 PM 19.4 °F - 17.6 °F 93% 29.94 in 10.0 mi Calm Calm - N/A   Overcast
8:13 PM 19.4 °F - 17.6 °F 93% 29.94 in 10.0 mi Calm Calm - N/A   Overcast
8:33 PM 19.4 °F - 17.6 °F 93% 29.94 in 10.0 mi Calm Calm - N/A   Overcast
8:53 PM 19.4 °F - 15.8 °F 86% 29.93 in 10.0 mi Calm Calm - N/A   Overcast
9:13 PM 19.4 °F - 17.6 °F 93% 29.93 in 10.0 mi Calm Calm - N/A   Overcast
9:33 PM 19.4 °F - 15.8 °F 86% 29.92 in 10.0 mi Calm Calm - N/A   Overcast
9:53 PM 19.4 °F - 15.8 °F 86% 29.92 in 10.0 mi Calm Calm - N/A   Overcast
10:13 PM 19.4 °F - 15.8 °F 86% 29.91 in 10.0 mi Calm Calm - N/A   Overcast
10:33 PM 19.4 °F - 15.8 °F 86% 29.91 in 10.0 mi Calm Calm - N/A   Overcast
10:53 PM 19.4 °F - 15.8 °F 86% 29.91 in 10.0 mi Calm Calm - N/A   Overcast
11:13 PM 17.6 °F - 15.8 °F 93% 29.91 in 10.0 mi Calm Calm - N/A   Overcast
11:33 PM 17.6 °F - 15.8 °F 93% 29.91 in 10.0 mi Calm Calm - N/A   Overcast
11:53 PM 19.4 °F - 15.8 °F 86% 29.90 in 10.0 mi Calm Calm - N/A   Overcast